Толидо

США     41°39′23″N   83°35′10″W
темп.,
°C
ветер,
м/с
пор.,
м/с
влажн.,
%
обл.,
%
осадки,
мм/ч
давл.,
гПа
погр.,
м
16 октября, сб
сб1623:00+14сз3592100 0.1 1009212
02:00+14сз4794100 1.6 1007368
05:00+11сз61188100 7.8 1009521
08:00+11зсз4107939 8.1 1009534
11:00+13сз710620 0.1 10111175
14:00+13зсз81160100 0.1 10121698
17:00+13з71159100 0.0 10131709
20:00+12зсз71259100 0.0 10151612
17 октября, вс
вс1723:00+12з51157100 0.0 1015966
02:00+10з612595 0.0 1015516
05:00+9з510655 0.0 1016304
08:00+8з48665 0.0 1017228
11:00+12зсз69574 0.0 1017712
14:00+16зсз710445 0.0 10161664
17:00+17зсз711465 0.0 10151938
20:00+13з612550 0.0 1017815
18 октября, пн
пн1823:00+12з613600 0.0 1017470
02:00+11з512620 0.0 1017327
05:00+9сз48675 0.0 1018230
08:00+8ссз34720 0.0 1020133
11:00+12сз23590 0.0 1021374
14:00+16зсз34450 0.0 1019950
17:00+18зсз35440 0.0 10181221
20:00+15юз11530 0.0 101934
19 октября, вт
вт1923:00+13зюз35660 0.0 1020153
02:00+12зюз36630 0.0 1020149
05:00+12зюз47670 0.0 1020178
08:00+11зюз48730 0.0 1020184
11:00+16зюз57570 0.0 1021382
14:00+19зюз67505 0.0 1019727
17:00+19зюз5852100 0.0 1018655
20:00+16юз4862100 0.0 1019238
20 октября, ср
ср2023:00+15зюз41063100 0.0 1019309
02:00+13зюз49674 0.0 1020264
05:00+12зюз410695 0.0 1020263
08:00+12юз49725 0.0 1020222
11:00+16юз58555 0.0 1020436
14:00+20юз694610 0.0 1018660
17:00+20юз59480 0.0 1016739
20:00+17юз410595 0.0 1016318